Location: Taukkyan
(23.1052°N, 94.0030°E)
Time: 22:30:15
(UTC+00:00)

MSX - Pass Details

Date: 06 July 2020
Orbit: 894 x 906 km, 98.8° (Epoch: 05 August)

Event Time Altitude Azimuth Distance (km) Brightness Sun altitude
Rises 20:37:16 0° 21° (NNE) 3,505 7.9 -28.7°
Reaches altitude 10° 20:39:46 10° 27° (NNE) 2,564 7.1 -28.3°
Maximum altitude 20:45:16 48° 101° (E) 1,150 4.5 -27.4°
Enters shadow 20:47:11 35° 149° (SSE) 1,403 4.7 -27.0°
